GW2732 Weather Reports


Display with metric or nautical units.
time (UTC)temp
F
wind
direction
speed
MPH
gust
MPH
rain 1hr
in
rain 24hr
in
rain mn
in
humidity
%
barometer
mb
20260902024503 63 230 7.0 14.0 0.00 0.00 0.00 73 1017.0
20260902023012 63 360 6.0 14.0 0.00 0.00 0.00 72 1016.7
20260902021524 63 360 8.0 16.0 0.00 0.00 0.00 70 1016.6
20260902020024 64 286 3.0 19.0 0.00 0.00 0.00 66 1016.4
20260902014533 65 289 8.0 14.0 0.00 0.00 0.00 62 1016.5
20260902013027 66 255 6.0 16.0 0.00 0.00 0.00 60 1016.3
20260902011517 67 245 9.0 15.0 0.00 0.00 0.00 59 1016.3
20260902010027 67 285 8.0 19.0 0.00 0.00 0.00 59 1016.2
20260902004525 67 252 7.0 14.0 0.00 0.00 0.00 59 1016.3
20260902003017 67 288 7.0 16.0 0.00 0.00 0.00 58 1016.1
20260902001514 68 284 8.0 17.0 0.00 0.00 0.00 57 1016.2
20260902000024 68 265 7.0 17.0 0.00 0.00 0.00 57 1016.3
20260901234506 68 266 8.0 19.0 0.00 0.00 0.00 55 1016.3
20260901233016 70 282 6.0 15.0 0.00 0.00 0.00 54 1016.2
20260901231538 69 239 4.0 16.0 0.00 0.00 0.00 54 1016.3
20260901230050 71 245 3.0 15.0 0.00 0.00 0.00 52 1016.3
20260901224601 70 250 9.0 15.0 0.00 0.00 0.00 52 1016.3
20260901223001 71 277 8.0 14.0 0.00 0.00 0.00 51 1016.4
20260901221617 72 273 4.0 11.0 0.00 0.00 0.00 50 1016.5
20260901220044 71 259 5.0 18.0 0.00 0.00 0.00 51 1016.6
20260901214546 69 244 5.0 13.0 0.00 0.00 0.00 53 1016.8
20260901213105 69 360 2.0 11.0 0.00 0.00 0.00 54 1016.8
20260901211552 69 264 7.0 14.0 0.00 0.00 0.00 55 1016.9
20260901210016 68 360 4.0 14.0 0.00 0.00 0.00 58 1016.9
20260901204528 69 360 6.0 16.0 0.00 0.00 0.00 56 1017.0
20260901203041 70 360 3.0 12.0 0.00 0.00 0.00 54 1016.9
20260901201533 70 360 7.0 16.0 0.00 0.00 0.00 55 1017.0
20260901200043 69 240 4.0 13.0 0.00 0.00 0.00 54 1017.0
20260901194534 69 258 5.0 10.0 0.00 0.00 0.00 54 1017.1
20260901193051 69 285 3.0 11.0 0.00 0.00 0.00 54 1017.0
20260901191538 68 360 5.0 14.0 0.00 0.00 0.00 54 1017.2
20260901190047 69 360 3.0 12.0 0.00 0.00 0.00 54 1017.2
20260901184547 69 238 2.0 12.0 0.00 0.00 0.00 53 1017.2
20260901183040 69 343 3.0 13.0 0.00 0.00 0.00 55 1017.1
20260901181540 67 244 6.0 14.0 0.00 0.00 0.00 57 1017.1
20260901180042 67 244 7.0 15.0 0.00 0.00 0.00 59 1017.2
20260901174542 67 281 8.0 14.0 0.00 0.00 0.00 58 1016.9
20260901173053 65 275 6.0 16.0 0.00 0.00 0.00 62 1016.8
20260901171500 65 269 3.0 11.0 0.00 0.00 0.00 65 1017.0
20260901170010 65 259 3.0 11.0 0.00 0.00 0.00 64 1016.6
20260901164522 65 271 6.0 13.0 0.00 0.00 0.00 65 1016.7
20260901163023 65 254 9.0 14.0 0.00 0.00 0.00 64 1016.7
20260901161528 64 272 8.0 14.0 0.00 0.00 0.00 67 1016.7
20260901160033 64 267 2.0 9.0 0.00 0.00 0.00 69 1016.5
20260901154527 64 360 5.0 10.0 0.00 0.00 0.00 70 1016.2
20260901153021 63 360 7.0 13.0 0.00 0.00 0.00 69 1016.4
20260901151519 63 360 3.0 10.0 0.00 0.00 0.00 72 1016.1
20260901150031 62 360 2.0 9.0 0.00 0.00 0.00 74 1016.0
20260901144541 62 360 2.0 9.0 0.00 0.00 0.00 75 1015.8
20260901143054 61 360 1.0 6.0 0.00 0.00 0.00 74 1015.7
20260901141501 61 360 0.0 3.0 0.00 0.00 0.00 74 1015.4
20260901140054 61 360 0.0 4.0 0.00 0.00 0.00 74 1015.2
20260901134601 61 360 0.0 4.0 0.00 0.00 0.00 73 1015.1
20260901133055 61 360 0.0 9.0 0.00 0.00 0.00 73 1015.0
20260901131515 61 360 1.0 3.0 0.00 0.00 0.00 75 1014.8
20260901130017 61 360 0.0 5.0 0.00 0.00 0.00 74 1014.6
20260901124528 60 360 2.0 5.0 0.00 0.00 0.00 75 1014.5
20260901123029 60 360 1.0 4.0 0.00 0.00 0.00 77 1014.5
20260901121535 61 360 3.0 8.0 0.00 0.00 0.00 77 1014.4
20260901120041 61 360 0.0 3.0 0.00 0.00 0.00 78 1014.3
20260901114534 61 360 1.0 5.0 0.00 0.00 0.00 77 1014.4
20260901113035 61 360 1.0 8.0 0.00 0.00 0.00 77 1014.5
20260901111537 61 360 2.0 5.0 0.00 0.00 0.00 76 1014.6
20260901110037 61 360 2.0 8.0 0.00 0.00 0.00 76 1014.5
20260901104532 61 360 3.0 13.0 0.00 0.00 0.00 76 1014.4
20260901103032 61 360 4.0 13.0 0.00 0.00 0.00 76 1014.3
20260901101542 61 360 3.0 8.0 0.00 0.00 0.00 76 1014.2
20260901100054 61 360 4.0 11.0 0.00 0.00 0.00 74 1014.1
20260901094510 61 360 2.0 9.0 0.00 0.00 0.00 73 1014.3
20260901093014 61 360 0.0 6.0 0.00 0.00 0.00 73 1014.5
20260901091506 61 360 2.0 10.0 0.00 0.00 0.00 73 1014.5
20260901090009 61 360 4.0 9.0 0.00 0.00 0.00 74 1014.5
20260901084507 61 360 1.0 9.0 0.00 0.00 0.00 75 1014.3
20260901083020 61 360 6.0 13.0 0.00 0.00 0.00 75 1014.5
20260901081508 61 360 5.0 12.0 0.00 0.00 0.00 75 1014.4
20260901074510 61 360 2.0 12.0 0.00 0.00 0.00 74 1014.1
20260901073022 60 360 3.0 13.0 0.00 0.00 0.00 74 1014.2
20260901071529 61 360 2.0 13.0 0.00 0.00 0.00 74 1014.1
20260901070040 61 360 3.0 11.0 0.00 0.00 0.00 74 1014.1
20260901064549 61 360 2.0 8.0 0.00 0.00 0.00 73 1014.2
20260901063051 60 360 3.0 8.0 0.00 0.00 0.00 73 1014.4
20260901061544 60 360 2.0 6.0 0.00 0.00 0.00 73 1014.3
20260901060037 60 360 0.0 5.0 0.00 0.00 0.00 73 1014.4
20260901054545 60 360 3.0 9.0 0.00 0.00 0.00 73 1014.5
20260901053046 60 360 3.0 12.0 0.00 0.00 0.00 74 1014.6
20260901051547 60 360 4.0 8.0 0.00 0.00 0.00 74 1014.5
20260901050048 60 360 3.0 10.0 0.00 0.00 0.00 74 1014.5
20260901044550 60 360 5.0 11.0 0.00 0.00 0.00 73 1014.3
20260901043050 61 360 7.0 17.0 0.00 0.00 0.00 72 1014.4
20260901041555 61 360 3.0 11.0 0.00 0.00 0.00 72 1014.3
20260901040043 61 360 6.0 15.0 0.00 0.00 0.00 72 1014.2
20260901034600 61 360 4.0 11.0 0.00 0.00 0.00 73 1014.0
20260901033002 61 360 5.0 13.0 0.00 0.00 0.00 73 1013.8
20260901031513 61 360 4.0 12.0 0.00 0.00 0.00 73 1013.7
20260901030027 61 360 5.0 12.0 0.00 0.00 0.00 72 1013.7